Location: Amsterdam
(30.7274°N, 84.4357°W)
Time: 09:32:58
(UTC+00:00)

Explorer 11/Cluster Stage 4 - Visible Passes

Search period start: 19 February 2026 00:00
Search period end: 01 March 2026 00:00
Orbit: 463 x 1177 km, 28.8° (Epoch: 18 February)

Date Brightness Start Highest point End Pass type
(mag) Time Alt. Az. Time Alt. Az. Time Alt. Az.
26 Feb 9.9 11:21:05 10° SSE 11:22:15 10° SSE 11:23:23 10° SE visible
27 Feb 9.8 10:55:45 10° SSE 10:57:44 11° SSE 10:59:39 10° SE visible
28 Feb 9.7 10:30:46 10° SSE 10:33:11 12° SSE 10:35:34 10° SE visible
